Location: Newark
(48.5667°N, 12.8167°E)
Time: 03:42:28
(UTC+00:00)

METEOR M2 - Pass Details

Date: 20 November 2019
Orbit: 818 x 828 km, 98.5° (Epoch: 06 December)

Event Time Altitude Azimuth Distance (km) Brightness Sun altitude
Exits shadow 19:37:22 13° 331° (NNW) 2,235 ? -41.3°
Drops below altitude 10° 19:37:55 10° 334° (NNW) 2,435 ? -41.4°
Sets 19:40:24 0° 341° (NNW) 3,371 ? -41.8°
